TimeEST,TemperatureF,Dew PointF,Humidity,Sea Level PressureIn,VisibilityMPH,Wind Direction,Wind SpeedMPH,Gust SpeedMPH,PrecipitationIn,Events,Conditions,WindDirDegrees,DateUTC
12:54 AM,26.1,19.9,78,30.05,10.0,Calm,Calm,-,N/A,,Clear,0,2013-01-24 05:54:00
1:54 AM,26.1,21.0,81,30.03,10.0,Calm,Calm,-,N/A,,Clear,0,2013-01-24 06:54:00
2:54 AM,25.0,21.9,88,30.01,10.0,Calm,Calm,-,N/A,,Clear,0,2013-01-24 07:54:00
3:54 AM,25.0,21.0,85,29.99,10.0,Calm,Calm,-,N/A,,Clear,0,2013-01-24 08:54:00
4:54 AM,34.0,26.1,73,29.99,10.0,NNW,10.4,-,N/A,,Clear,340,2013-01-24 09:54:00
5:54 AM,39.0,26.1,60,30.00,10.0,NNW,17.3,-,N/A,,Clear,340,2013-01-24 10:54:00
6:54 AM,37.0,25.0,62,30.03,10.0,North,15.0,27.6,N/A,,Clear,350,2013-01-24 11:54:00
7:54 AM,34.0,23.0,64,30.07,10.0,North,16.1,27.6,N/A,,Clear,350,2013-01-24 12:54:00
8:54 AM,33.1,18.0,54,30.13,10.0,North,21.9,31.1,N/A,,Clear,350,2013-01-24 13:54:00
9:54 AM,34.0,16.0,48,30.17,10.0,NNW,19.6,29.9,N/A,,Clear,340,2013-01-24 14:54:00
10:54 AM,34.0,16.0,48,30.23,10.0,North,16.1,35.7,N/A,,Clear,360,2013-01-24 15:54:00
11:54 AM,35.1,12.0,39,30.26,10.0,North,21.9,29.9,N/A,,Clear,350,2013-01-24 16:54:00
12:54 PM,34.0,10.0,37,30.28,10.0,North,16.1,26.5,N/A,,Clear,350,2013-01-24 17:54:00
1:54 PM,36.0,8.1,31,30.29,10.0,Variable,5.8,20.7,N/A,,Clear,0,2013-01-24 18:54:00
2:54 PM,36.0,6.1,29,30.30,10.0,NNW,17.3,25.3,N/A,,Clear,340,2013-01-24 19:54:00
3:54 PM,36.0,5.0,27,30.32,10.0,NNW,18.4,-,N/A,,Clear,340,2013-01-24 20:54:00
4:54 PM,34.0,-0.0,24,30.31,10.0,NNW,17.3,-,N/A,,Clear,330,2013-01-24 21:54:00
5:54 PM,30.9,1.0,28,30.33,10.0,North,10.4,-,N/A,,Clear,360,2013-01-24 22:54:00
6:54 PM,30.0,1.9,30,30.35,10.0,North,9.2,-,N/A,,Clear,360,2013-01-24 23:54:00
7:54 PM,28.0,3.9,36,30.38,10.0,North,5.8,-,N/A,,Clear,360,2013-01-25 00:54:00
8:54 PM,26.1,6.1,43,30.38,10.0,SE,4.6,-,N/A,,Clear,130,2013-01-25 01:54:00
9:54 PM,26.1,8.1,47,30.39,10.0,SSE,9.2,-,N/A,,Clear,160,2013-01-25 02:54:00
10:54 PM,24.1,5.0,44,30.42,10.0,SSE,9.2,-,N/A,,Clear,160,2013-01-25 03:54:00
11:54 PM,23.0,3.0,42,30.44,10.0,SSE,10.4,-,N/A,,Clear,160,2013-01-25 04:54:00